Regional Weather Roundup
Issued by NWS New Orleans/Baton Rouge, LA

Home | Current Version | Previous Version | Graphics & Text | Print | Product List | Glossary On
Versions: 1 2 3 4 5 6 7 8 9 10 11 12 13 14 15 16 17 18 19 20 21 22 23 24 25 26 27 28 29 30 31 32 33 34 35 36 37 38 39 40 41 42 43 44 45 46 47 48 49 50
394
ASUS44 KLIX 231901
RWRLIX
NEW ORLEANS REGIONAL WEATHER ROUNDUP
NATIONAL WEATHER SERVICE NEW ORLEANS LA
200 PM CDT TUE SEP 23 2014

NOTE: "FAIR" INDICATES FEW OR NO CLOUDS BELOW 12,000 FEET WITH NO
      SIGNIFICANT WEATHER AND/OR OBSTRUCTIONS TO VISIBILITY.
      SKY/WX - SKY CONDITION AND SIGNIFICANT WEATHER.
      TMP - AIR TEMPERATURE.     DP    - DEWPOINT TEMPERATURE.
      RH  - RELATIVE HUMIDITY.   PRES  - PRESSURE.
      HI  - HEAT INDEX.          WCI   - WIND CHILL INDEX.

*  THESE STATIONS ARE NOT NWS OR FAA STATIONS AND ARE NOT UNDER
   NWS QUALITY CONTROL.

LAZ038-040-048-061>063-065>067-069-232000-
SOUTHEAST LOUISIANA

CITY           SKY/WX    TMP DP  RH WIND       PRES   REMARKS
N.O. AUDUBON   NOT AVBL
N.O. INTL ARPT MOSUNNY   82  54  37 N12       30.08F
N.O. LAKEFRONT SUNNY     83  56  39 N10       30.08F
N.O. DOWNTOWN*   N/A     82  54  36 N10       30.08F
SLIDELL        SUNNY     84  54  35 N12       30.07F
BATON ROUGE    SUNNY     83  55  38 N6        30.10F
BOOTHVILLE     SUNNY     82  63  52 NE10G18   30.06F
BELLE CHASSE   MOSUNNY   84  49  29 NE9G18    30.06F
BOGALUSA*        N/A     83  51  32 CALM      30.10F
GALLIANO*      NOT AVBL
NEW ROADS*       N/A     81  56  41 N9        30.10F
GONZALES*        N/A     82  57  41 NE8       30.08F
HAMMOND*       NOT AVBL
HOUMA*         SUNNY     84  -6   3 NE12      30.06F
PORT FOURCHON* CLEAR     81  63  54 NE15G21   30.08F

$$

MSZ070-080>082-232000-
SOUTHERN MISSISSIPPI

CITY           SKY/WX    TMP DP  RH WIND       PRES   REMARKS
MCCOMB         SUNNY     81  51  35 E3        30.11F
GULFPORT       SUNNY     84  55  36 NE9       30.06F
BILOXI         NOT AVBL
PASCAGOULA     SUNNY     84  59  42 VRB7      30.07F

$$

COASTAL OBSERVATIONS
LAKE AND NEARSHORE STATIONS

STATION/POSITION TIME  TEMP    WIND        PRES    WAVE
                       AIR SEA DIR/SP/G            HT/PER
                 (UTC) (F)     (DEG/KT/KT) (MB)    (FT/S)
PASCAGOULA       1800   83      80/ 10/ 13 1017.9
WAVELAND YACHT   1800   79      30/  6/  8 1018.0
GRAND ISLE       1800   79 81   70/ 12/ 15 1018.6
SOUTHWEST PASS   1800   87 89   70/ 13/ 18 1017.8
NEW CANAL        1800   78 79   40/  9/ 11 1019.3
SHELL BEACH      1800   78 76   40/ 11/ 13 1018.4

OFFSHORE STATIONS

STATION/POSITION TIME  TEMP    WIND        PRES    WAVE
                       AIR SEA DIR/SP/G            HT/PER
                 (UTC) (F)     (DEG/KT/KT) (MB)    (FT/S)
64 S DAUPHIN ISL 1829   79 84   60/ 14/ 17 1017.4    4/ 6

$$




USA.gov is the U.S. government's official web portal to all federal, state and local government web resources and services.